星链-30899 (STARLINK-30899 )

导读 | 豆包AI

STARLINK-30899是美国太空探索技术公司星链(Starlink)互联网卫星组网的组成部分,于2023年11月22日发射入轨,属于第二代星链卫星,旨在为全球提供低延迟、高速率的宽带互联网服务,尤其覆盖偏远地区与网络基础设施薄弱区域,目前在轨运行,是星链大规模星座建设中的一员。

基本信息
目录编号:
58420
目录名称:
STARLINK-30899
国际标识:
2023-180U
轨道中心:
EARTH
卫星名称:
星链-30899
卫星全名:
星链-30899 (STARLINK-30899 )
卫星状态:
在轨 (已飞行890 天)
发射日期:
2023-11-22 UTC
国别 :
美国 (US)
星等 :
--
轨道信息
数据来源 国际轨道数据 AOE轨道数据
星历时间 2026-04-30T09:03:36+0800
19小时前
查看轨道信息
2026-04-28T05:00:00+0800
2天前
查看轨道信息
半长轴 6861.151km 6861.181km
偏心率 0.0001256 0.0000746
轨道倾角 43.003° 43.002°
近地点辐角 272.830° 288.438°
升交点赤经 122.209° 134.459°
平近点角 87.241° 8.769°
近地点 482.152km 482.532km
远地点 483.876km 483.556km
周期 94.266分钟 94.267分钟
每日圈数 15.275919 15.275819
详细信息
固有亮度:
5
最大亮度:
0.3
卫星平台:
Starlink v2.0 mini
覆盖范围:
全球
运营商:
太空探索技术公司
运营商所在国:
美国
制造商(研发单位):
太空探索技术公司
制造商所在国:
美国
使用方式:
暂无
卫星简介
星链(Starlink)计划是由太空探索技术公司(SpaceX)提出的一个巨型低轨卫星互联网星座项目,计划在2019年至2024年间在太空搭建由约1.2万颗卫星组成的“星链”网络,其中1584颗将部署在地球上空550千米处的近地轨道,并从2020年开始工作。该卫星仍在工作。
2D轨道图
3D轨道图
轨道高度分析图
轨道倾角分析图
轨道综合分析图
查看轨道综合分析图